Weather History for Pawtucket, RI

Change the Weather History Date:

Thursday, May 3, 2012

  Actual Average Record
Temperature  
Mean Temperature 48 °F -  
Max Temperature 51 °F 63 °F 89 °F (2001)
Min Temperature 44 °F 43 °F 37 °F (2005)
Degree Days  
Heating Degree Days 18    
Moisture  
Dew Point 45 °F    
Average Humidity 89    
Maximum Humidity 93    
Minimum Humidity 82    
Precipitation  
Precipitation 0.00 in - - ()
Sea Level Pressure  
Sea Level Pressure 30.17 in    
Wind  
Wind Speed 2 mph (ESE)    
Max Wind Speed 6 mph    
Max Gust Speed -    
Visibility 6 miles    
Events      
Averages and records for this station are not official NWS values.
T = Trace of Precipitation, MM = Missing Value Source: NWS Daily Summary

Daily Weather History Graph

Daily Weather History Graph

Search for Another Location

Airport:

Trip Planner

Search our weather history database for the weather conditions in past years. The results will help you decide how hot, cold, wet, or windy it might be!

Date:

Astronomy

May. 03, 2012 Rise Set
Actual Time 5:38 AM EDT 7:47 PM EDT
Civil Twilight 5:08 AM EDT 8:18 PM EDT
Nautical Twilight 4:30 AM EDT 8:55 PM EDT
Astronomical Twilight 3:49 AM EDT 9:37 PM EDT
Moon 5:05 PM EDT (5/3) 3:43 AM EDT (5/3)
Length of Visible Light 15h 09m
Length of Day
14h 08m
Waxing Gibbous, 91% of the Moon is Illuminated
May 3
Waxing Gibbous
May 5
Full
May 12
Last Quarter
May 20
New
May 28
First Quarter

Hourly Weather History & Observations

Time (EDT) Temp. Windchill Dew Point Humidity Pressure Visibility Wind Dir Wind Speed Gust Speed Precip Events Conditions
2:36 AM 44.6 °F - 42.8 °F 93% 30.18 in 10.0 mi Calm Calm - N/A   Overcast
3:36 AM 44.6 °F 43.1 °F 42.8 °F 93% 30.16 in 5.0 mi ESE 3.5 mph - N/A   Overcast
4:16 AM 46.4 °F 44.3 °F 42.8 °F 87% 30.15 in 8.0 mi ESE 4.6 mph - N/A   Overcast
5:55 AM 46.4 °F 45.2 °F 44.6 °F 93% 30.16 in 3.0 mi East 3.5 mph - N/A   Overcast
6:15 AM 46.4 °F - 44.6 °F 93% 30.17 in 2.5 mi Calm Calm - N/A   Overcast
6:35 AM 46.4 °F 45.2 °F 44.6 °F 93% 30.17 in 2.5 mi East 3.5 mph - N/A   Overcast
7:35 AM 46.4 °F 44.3 °F 44.6 °F 93% 30.18 in 2.0 mi East 4.6 mph - N/A   Overcast
7:55 AM 46.4 °F 44.3 °F 44.6 °F 93% 30.19 in 3.0 mi East 4.6 mph - N/A   Overcast
9:55 AM 48.2 °F - 44.6 °F 87% 30.20 in 3.0 mi ESE 4.6 mph - N/A   Overcast
10:15 AM 48.2 °F - 44.6 °F 87% 30.20 in 3.0 mi SE 4.6 mph - N/A   Overcast
10:35 AM 48.2 °F - 46.4 °F 93% 30.20 in 4.0 mi SE 5.8 mph - N/A   Overcast
12:35 PM 48.2 °F - 46.4 °F 93% 30.19 in 8.0 mi ESE 5.8 mph - N/A   Overcast
12:55 PM 50.0 °F - 46.4 °F 87% 30.18 in 6.0 mi Calm Calm - N/A   Overcast
2:55 PM 51.8 °F - 46.4 °F 82% 30.16 in 3.0 mi SSW 3.5 mph - N/A   Overcast
3:15 PM 51.8 °F - 46.4 °F 82% 30.16 in 2.5 mi Calm Calm - N/A   Overcast
3:35 PM 51.8 °F - 48.2 °F 88% 30.16 in 5.0 mi South 3.5 mph - N/A   Overcast
5:35 PM 51.8 °F - 46.4 °F 82% 30.15 in 10.0 mi Calm Calm - N/A   Overcast
5:55 PM 51.8 °F - 46.4 °F 82% 30.15 in 10.0 mi Calm Calm - N/A   Overcast
8:15 PM 50.0 °F - 46.4 °F 87% 30.14 in 10.0 mi Calm Calm - N/A   Overcast
8:35 PM 50.0 °F - 46.4 °F 87% 30.14 in 10.0 mi Calm Calm - N/A   Overcast
10:35 PM 48.2 °F - 46.4 °F 93% 30.14 in 8.0 mi Calm Calm - N/A   Overcast
10:55 PM 48.2 °F - 46.4 °F 93% 30.14 in 10.0 mi Calm Calm - N/A   Overcast